Ely, NV

7:55 PM PDT on July 24, 2016 (GMT -0700)
Ely

Weather History for KELY - March, 2014

Change the Weather History Date:

Friday, March 21, 2014

  Actual Average Record
Temperature  
Mean Temperature 38 °F 37 °F  
Max Temperature 57 °F 52 °F 76 °F (2004)
Min Temperature 19 °F 23 °F -7 °F (1897)
Degree Days  
Heating Degree Days 27 28  
Month to date heating degree days 563 624  
Since 1 July heating degree days 5582 5961  
Cooling Degree Days 0 0  
Month to date cooling degree days 0 0  
Year to date cooling degree days 0 0  
Moisture  
Dew Point 20 °F    
Average Humidity 52    
Maximum Humidity 85    
Minimum Humidity 19    
Precipitation  
Precipitation T in 0.03 in 0.52 in (1978)
Month to date precipitation 0.07 0.62  
Year to date precipitation 1.80 2.07  
Snow  
Snow 0.00 in 0.20 in 7.40 in (1991)
Month to date snowfall 0.6 5.6  
Since 1 July snowfall 39.7 40.5  
Snow Depth 0.00 in    
Sea Level Pressure  
Sea Level Pressure 29.94 in    
Wind  
Wind Speed 8 mph (North)    
Max Wind Speed 21 mph    
Max Gust Speed 27 mph    
Visibility 10 miles    
Events      
T = Trace of Precipitation, MM = Missing Value Source: NWS Daily Summary

Daily Weather History Graph

Daily Weather History Graph

Search for Another Location

Airport or City:

Trip Planner

Search our weather history database for the weather conditions in past years. The results will help you decide how hot, cold, wet, or windy it might be!

Date:

Astronomy

Mar. 21, 2014 Rise Set
Actual Time 6:41 AM PDT 6:52 PM PDT
Civil Twilight 6:14 AM PDT 7:19 PM PDT
Nautical Twilight 5:43 AM PDT 7:50 PM PDT
Astronomical Twilight 5:11 AM PDT 8:22 PM PDT
Moon No Moon Rise 9:37 AM PDT (3/21)
Length of Visible Light 13h 04m
Length of Day
12h 11m
Waning Gibbous, 74% of the Moon is Illuminated
Mar 21
Waning Gibbous
Mar 23
Last Quarter
Mar 30
New
Apr 7
First Quarter
Apr 15
Full

Hourly Weather History & Observations

Time (PDT) Temp. Windchill Dew Point Humidity Pressure Visibility Wind Dir Wind Speed Gust Speed Precip Events Conditions
12:53 AM 28.9 °F 21.1 °F 14.0 °F 54% 29.94 in 10.0 mi South 8.1 mph - N/A   Clear
1:53 AM 28.0 °F 20.8 °F 14.0 °F 56% 29.94 in 10.0 mi SSE 6.9 mph - N/A   Clear
2:53 AM 24.1 °F 17.0 °F 12.9 °F 62% 29.95 in 10.0 mi South 5.8 mph - N/A   Clear
3:53 AM 21.9 °F 12.5 °F 14.0 °F 72% 29.95 in 10.0 mi South 8.1 mph - N/A   Clear
4:53 AM 21.9 °F 11.0 °F 14.0 °F 72% 29.96 in 10.0 mi South 10.4 mph - N/A   Clear
5:53 AM 21.0 °F 11.4 °F 12.9 °F 71% 29.98 in 10.0 mi SSW 8.1 mph - N/A   Clear
9:53 AM 39.0 °F 32.3 °F 16.0 °F 39% 30.00 in 10.0 mi NNE 10.4 mph - N/A   Clear
10:53 AM 43.0 °F 39.5 °F 16.0 °F 34% 30.00 in 10.0 mi NW 5.8 mph - N/A   Clear
11:53 AM 46.9 °F - 16.0 °F 29% 29.97 in 10.0 mi Variable 6.9 mph - N/A   Clear
12:53 PM 52.0 °F - 16.0 °F 24% 29.91 in 10.0 mi North 5.8 mph - N/A   Clear
1:53 PM 55.0 °F - 16.0 °F 22% 29.86 in 10.0 mi North 8.1 mph - N/A   Clear
2:53 PM 55.0 °F - 14.0 °F 20% 29.86 in 10.0 mi ENE 5.8 mph - N/A   Mostly Cloudy
3:53 PM 54.0 °F - 16.0 °F 22% 29.88 in 10.0 mi North 9.2 mph - N/A   Overcast
4:53 PM 52.0 °F - 17.1 °F 25% 29.88 in 10.0 mi NNW 15.0 mph - N/A   Overcast
5:53 PM 51.1 °F - 18.0 °F 27% 29.90 in 10.0 mi NE 9.2 mph - N/A   Overcast
6:53 PM 48.9 °F - 18.0 °F 29% 29.93 in 10.0 mi North 11.5 mph - N/A   Overcast
7:53 PM 43.0 °F 35.1 °F 28.9 °F 58% 29.97 in 10.0 mi WNW 17.3 mph 23.0 mph N/A   Overcast
8:53 PM 39.0 °F 34.0 °F 33.1 °F 79% 29.98 in 10.0 mi WNW 6.9 mph - 0.00 in   Overcast
9:53 PM 39.0 °F 35.7 °F 34.0 °F 82% 29.95 in 10.0 mi ENE 4.6 mph - 0.00 in   Overcast
10:53 PM 37.9 °F 35.5 °F 34.0 °F 86% 29.94 in 10.0 mi WNW 3.5 mph - N/A   Overcast
11:53 PM 37.0 °F 34.5 °F 33.1 °F 86% 29.92 in 10.0 mi SW 3.5 mph - N/A   Overcast